TimeCDT,TemperatureF,Dew PointF,Humidity,Sea Level PressureIn,VisibilityMPH,Wind Direction,Wind SpeedMPH,Gust SpeedMPH,PrecipitationIn,Events,Conditions,WindDirDegrees,DateUTC
12:15 AM,70.0,59.9,70,30.09,10.0,SSE,5.8,-,N/A,,Clear,160,2013-08-21 05:15:00
12:35 AM,70.0,60.8,73,30.09,10.0,SSE,5.8,-,N/A,,Clear,160,2013-08-21 05:35:00
12:55 AM,70.0,60.8,73,30.09,10.0,South,6.9,-,N/A,,Clear,170,2013-08-21 05:55:00
1:15 AM,70.0,62.1,76,30.09,10.0,South,5.8,-,N/A,,Clear,170,2013-08-21 06:15:00
1:35 AM,70.0,63.0,78,30.10,10.0,SSE,4.6,-,N/A,,Clear,160,2013-08-21 06:35:00
1:55 AM,67.5,60.8,79,30.10,10.0,South,5.8,-,N/A,,Clear,180,2013-08-21 06:55:00
2:15 AM,67.5,61.0,80,30.09,10.0,South,5.8,-,N/A,,Clear,170,2013-08-21 07:15:00
2:35 AM,67.5,61.3,81,30.09,10.0,South,6.9,-,N/A,,Clear,170,2013-08-21 07:35:00
2:55 AM,67.5,61.2,80,30.09,10.0,South,6.9,-,N/A,,Clear,170,2013-08-21 07:55:00
3:15 AM,67.5,61.3,81,30.09,10.0,South,6.9,-,N/A,,Clear,170,2013-08-21 08:15:00
3:35 AM,67.5,60.3,78,30.09,10.0,SSW,5.8,-,N/A,,Clear,200,2013-08-21 08:35:00
3:55 AM,67.5,61.0,80,30.09,10.0,South,6.9,-,N/A,,Clear,190,2013-08-21 08:55:00
4:15 AM,67.5,60.3,78,30.09,10.0,South,4.6,-,N/A,,Clear,190,2013-08-21 09:15:00
4:35 AM,66.0,59.0,78,30.09,10.0,South,5.8,-,N/A,,Clear,190,2013-08-21 09:35:00
4:55 AM,64.9,58.5,79,30.10,10.0,South,5.8,-,N/A,,Clear,170,2013-08-21 09:55:00
5:15 AM,63.1,58.1,84,30.11,10.0,South,3.5,-,N/A,,Clear,180,2013-08-21 10:15:00
5:35 AM,62.2,58.3,87,30.11,10.0,South,4.6,-,N/A,,Clear,170,2013-08-21 10:35:00
5:55 AM,61.2,58.1,90,30.11,10.0,SSE,4.6,-,N/A,,Clear,160,2013-08-21 10:55:00
6:15 AM,61.2,58.1,90,30.11,10.0,South,5.8,-,N/A,,Clear,170,2013-08-21 11:15:00
6:35 AM,61.3,57.2,86,30.12,10.0,South,4.6,-,N/A,,Clear,180,2013-08-21 11:35:00
6:55 AM,61.2,56.8,86,30.12,10.0,South,3.5,-,N/A,,Clear,190,2013-08-21 11:55:00
7:15 AM,61.2,56.7,85,30.13,10.0,Calm,Calm,-,N/A,,Clear,0,2013-08-21 12:15:00
7:35 AM,61.2,56.8,86,30.13,10.0,Calm,Calm,-,N/A,,Clear,0,2013-08-21 12:35:00
7:55 AM,61.2,56.8,86,30.13,10.0,South,3.5,-,N/A,,Clear,190,2013-08-21 12:55:00
8:15 AM,62.6,57.6,84,30.15,10.0,South,4.6,-,N/A,,Clear,170,2013-08-21 13:15:00
8:35 AM,66.4,58.5,76,30.15,10.0,South,6.9,-,N/A,,Clear,180,2013-08-21 13:35:00
8:55 AM,70.0,58.5,67,30.15,10.0,South,8.1,-,N/A,,Clear,190,2013-08-21 13:55:00
9:15 AM,70.0,57.0,63,30.15,10.0,South,11.5,-,N/A,,Clear,190,2013-08-21 14:15:00
9:35 AM,75.2,60.6,60,30.15,10.0,South,10.4,-,N/A,,Clear,190,2013-08-21 14:35:00
9:55 AM,75.2,59.0,57,30.16,10.0,SSW,9.2,-,N/A,,Clear,200,2013-08-21 14:55:00
10:15 AM,77.5,58.8,52,30.16,10.0,SW,11.5,-,N/A,,Clear,220,2013-08-21 15:15:00
10:35 AM,77.5,57.0,49,30.16,10.0,South,10.4,-,N/A,,Clear,190,2013-08-21 15:35:00
10:55 AM,80.1,57.2,45,30.16,10.0,SSW,10.4,-,N/A,,Clear,210,2013-08-21 15:55:00
11:15 AM,80.1,55.2,42,30.17,10.0,South,11.5,-,N/A,,Clear,190,2013-08-21 16:15:00
11:35 AM,81.5,55.0,40,30.17,10.0,SSW,10.4,-,N/A,,Clear,210,2013-08-21 16:35:00
11:55 AM,82.6,55.8,40,30.17,10.0,South,9.2,-,N/A,,Clear,190,2013-08-21 16:55:00
12:15 PM,83.5,55.2,38,30.17,10.0,SSW,10.4,-,N/A,,Clear,210,2013-08-21 17:15:00
12:35 PM,83.7,54.7,37,30.16,10.0,South,6.9,-,N/A,,Clear,190,2013-08-21 17:35:00
12:55 PM,84.2,55.9,38,30.16,10.0,SSE,11.5,-,N/A,,Clear,160,2013-08-21 17:55:00
1:15 PM,84.7,56.3,38,30.16,10.0,South,9.2,-,N/A,,Clear,190,2013-08-21 18:15:00
1:35 PM,85.8,56.8,37,30.15,10.0,South,10.4,-,N/A,,Clear,180,2013-08-21 18:35:00
1:55 PM,85.3,56.1,37,30.15,10.0,South,8.1,-,N/A,,Clear,180,2013-08-21 18:55:00
2:15 PM,87.8,57.7,36,30.15,10.0,South,9.2,-,N/A,,Clear,190,2013-08-21 19:15:00
2:35 PM,87.8,57.6,36,30.14,10.0,South,10.4,-,N/A,,Clear,180,2013-08-21 19:35:00
2:55 PM,87.3,57.4,36,30.14,10.0,WSW,3.5,-,N/A,,Clear,240,2013-08-21 19:55:00
3:15 PM,87.8,57.7,36,30.13,10.0,SW,5.8,-,N/A,,Clear,230,2013-08-21 20:15:00
3:35 PM,88.7,58.6,36,30.12,10.0,South,4.6,-,N/A,,Clear,180,2013-08-21 20:35:00
3:55 PM,87.8,58.3,37,30.12,10.0,South,6.9,-,N/A,,Clear,190,2013-08-21 20:55:00
4:15 PM,87.8,58.5,37,30.11,10.0,South,8.1,-,N/A,,Clear,170,2013-08-21 21:15:00
4:35 PM,88.9,57.9,35,30.11,10.0,South,8.1,-,N/A,,Clear,170,2013-08-21 21:35:00
4:55 PM,90.1,58.8,35,30.10,10.0,SSE,8.1,-,N/A,,Clear,150,2013-08-21 21:55:00
5:15 PM,90.0,57.7,34,30.10,10.0,South,8.1,-,N/A,,Clear,170,2013-08-21 22:15:00
5:35 PM,87.8,56.5,34,30.09,10.0,SSE,10.4,-,N/A,,Clear,160,2013-08-21 22:35:00
5:55 PM,87.8,55.8,34,30.09,10.0,SSE,8.1,-,N/A,,Clear,160,2013-08-21 22:55:00
6:15 PM,87.8,54.9,32,30.09,10.0,South,8.1,-,N/A,,Clear,170,2013-08-21 23:15:00
6:35 PM,85.1,53.4,34,30.08,10.0,SE,9.2,-,N/A,,Clear,140,2013-08-21 23:35:00
6:55 PM,84.2,53.4,35,30.08,10.0,South,9.2,-,N/A,,Clear,170,2013-08-21 23:55:00
7:15 PM,82.9,54.9,38,30.08,10.0,South,8.1,-,N/A,,Clear,190,2013-08-22 00:15:00
7:35 PM,82.4,55.8,40,30.08,10.0,South,8.1,-,N/A,,Clear,190,2013-08-22 00:35:00
7:55 PM,81.0,55.4,41,30.08,10.0,South,5.8,-,N/A,,Clear,180,2013-08-22 00:55:00
8:15 PM,80.1,57.6,46,30.08,10.0,SSW,4.6,-,N/A,,Clear,200,2013-08-22 01:15:00
8:35 PM,77.4,58.5,52,30.09,10.0,SSW,4.6,-,N/A,,Clear,210,2013-08-22 01:35:00
8:55 PM,75.2,57.9,55,30.10,10.0,SSW,3.5,-,N/A,,Clear,200,2013-08-22 01:55:00
9:15 PM,75.2,59.5,58,30.11,10.0,South,4.6,-,N/A,,Clear,190,2013-08-22 02:15:00
9:35 PM,70.0,59.5,69,30.11,10.0,South,3.5,-,N/A,,Clear,170,2013-08-22 02:35:00
9:55 PM,70.0,59.2,68,30.12,10.0,SE,4.6,-,N/A,,Clear,140,2013-08-22 02:55:00
10:15 PM,70.0,59.9,70,30.13,10.0,SSE,5.8,-,N/A,,Clear,160,2013-08-22 03:15:00
10:35 PM,70.0,60.6,72,30.13,10.0,SSE,5.8,-,N/A,,Clear,160,2013-08-22 03:35:00
10:55 PM,70.0,61.0,73,30.14,10.0,SE,5.8,-,N/A,,Clear,140,2013-08-22 03:55:00
11:15 PM,67.6,59.0,74,30.15,10.0,SE,5.8,-,N/A,,Clear,140,2013-08-22 04:15:00
11:35 PM,70.0,59.7,70,30.15,10.0,SSE,5.8,-,N/A,,Clear,150,2013-08-22 04:35:00
11:55 PM,65.5,57.7,76,30.15,10.0,SSE,6.9,-,N/A,,Clear,150,2013-08-22 04:55:00